This is the latest recevied weather packets stored in our database for station/object W4MSI. If no packets are shown the sender has not sent any weather packets the latest 10 day(s).
| Time | Temp. | Humidity | Pressure | Rain* | Wind** | Luminosity | Snow |
|---|---|---|---|---|---|---|---|
| 1778018415 | 21.67° C | 59% | 1007.4 hPa | 0 mm | - | 172 W/m² | - |
| 1778018112 | 21.67° C | 60% | 1007.4 hPa | 0 mm | - | 183 W/m² | - |
| 1778017810 | 21.67° C | 61% | 1007.3 hPa | 0 mm | - | 132 W/m² | - |
| 1778017508 | 21.67° C | 61% | 1007.2 hPa | 0 mm | - | 181 W/m² | - |
| 1778017204 | 21.67° C | 61% | 1007.3 hPa | 0 mm | - | 155 W/m² | - |
| 1778016902 | 21.67° C | 62% | 1007.4 hPa | 0 mm | - | 180 W/m² | - |
| 1778016598 | 21.67° C | 63% | 1007.5 hPa | 0 mm | - | 141 W/m² | - |
| 1778016295 | 22.22° C | 62% | 1007.3 hPa | 0 mm | - | 175 W/m² | - |
| 1778015991 | 22.22° C | 62% | 1007.1 hPa | 0 mm | - | 231 W/m² | - |
| 1778015689 | 22.22° C | 62% | 1007.2 hPa | 0 mm | - | 217 W/m² | - |
| 1778015385 | 22.22° C | 62% | 1007.2 hPa | 0 mm | - | 180 W/m² | - |
| 1778015083 | 21.67° C | 64% | 1007.6 hPa | 0 mm | - | 236 W/m² | - |
| 1778014779 | 21.67° C | 63% | 1007.6 hPa | 0 mm | - | 124 W/m² | - |
| 1778014478 | 21.67° C | 62% | 1007.6 hPa | 0 mm | - | 218 W/m² | - |
| 1778014174 | 22.22° C | 60% | 1007.6 hPa | 0 mm | - | 541 W/m² | - |
| 1778013872 | 22.78° C | 59% | 1007.7 hPa | 0 mm | - | 306 W/m² | - |
| 1778013569 | 22.78° C | 61% | 1007.4 hPa | 0 mm | - | 681 W/m² | - |
| 1778013265 | 22.78° C | 60% | 1007.6 hPa | 0 mm | - | 301 W/m² | - |
| 1778012962 | 22.22° C | 59% | 1007.6 hPa | 0 mm | - | 261 W/m² | - |
| 1778012658 | 21.67° C | 59% | 1007.8 hPa | 0 mm | - | 795 W/m² | - |
| 1778012355 | 22.22° C | 59% | 1007.9 hPa | 0 mm | - | 299 W/m² | - |
| 1778012052 | 21.67° C | 59% | 1008 hPa | 0 mm | - | 499 W/m² | - |
| 1778011750 | 22.22° C | 59% | 1007.9 hPa | 0 mm | - | 314 W/m² | - |
| 1778011447 | 22.78° C | 58% | 1007.9 hPa | 0 mm | - | 274 W/m² | - |
| 1778011142 | 22.22° C | 57% | 1007.8 hPa | 0 mm | - | 374 W/m² | - |
* Rain latest hour (hover to see other rain measurements)
** Current wind speed in m/s (hover to see current wind gust speed)